Regional Weather Roundup
Issued by NWS

Home | Current Version | Previous Version | Graphics & Text | Print | Product List | Glossary On
Versions: 1 2 3 4 5 6 7 8 9 10 11 12 13 14 15 16 17 18 19 20 21 22 23 24 25 26 27 28 29 30 31 32 33 34 35 36 37 38 39 40 41 42 43 44 45 46 47 48 49 50
000
ASUS43 KLOT 270603
RWRIL

ILLINOIS REGIONAL WEATHER ROUNDUP
NATIONAL WEATHER SERVICE CHICAGO/ROMEOVILLE IL
100 AM CDT SAT AUG 27 2016

NOTE: "FAIR" INDICATES FEW OR NO CLOUDS BELOW 12,000 FEET WITH NO
SIGNIFICANT WEATHER AND/OR OBSTRUCTIONS TO VISIBILITY.

* THESE STATIONS ARE NOT UNDER NWS QUALITY CONTROL. THEY ALSO MAY NOT
  REPORT WEATHER SUCH AS PRECIPITATION OR FOG.

ILZ001-002-007-009-015-016-024-270700-
NORTHWEST ILLINOIS

CITY           SKY/WX    TMP DP  RH WIND       PRES   REMARKS
MOLINE         FAIR      68  66  93 E6        30.04F
6HR MIN TEMP:  68; 6HR MAX TEMP:  76; 6HR PCP:  0.36;

STERLING*      LGT RAIN  68  68 100 NE5       30.10R
SAVANNA*       CLOUDY    68  64  89 E8        30.07F
$$

ILZ003-004-008-010-011-017-018-270700-
NORTH CENTRAL ILLINOIS

CITY           SKY/WX    TMP DP  RH WIND       PRES   REMARKS
ROCKFORD       LGT RAIN  67  61  81 E6        30.11S
6HR MIN TEMP:  67; 6HR MAX TEMP:  76; 6HR PCP:  0.01;

FREEPORT*      CLOUDY    64  62  94 NE3       30.13S THUNDER
ROCHELLE*      MOCLDY    65  64  96 E7        30.11S
$$

ILZ005-006-012>014-019>023-270700-
NORTHEAST ILLINOIS

CITY           SKY/WX    TMP DP  RH WIND       PRES   REMARKS
CHICAGO-OHARE  CLOUDY    69  65  86 NE7       30.11F
6HR MIN TEMP:  68; 6HR MAX TEMP:  74; 6HR PCP:  0.14;

CHICAGO-MIDWAY CLOUDY    72  65  78 E9        30.11F
6HR MIN TEMP:  72; 6HR MAX TEMP:  76; 6HR PCP:  0.03;

AURORA         LGT RAIN  68  65  90 E7        30.12S
6HR MIN TEMP:  68; 6HR MAX TEMP:  78; 6HR PCP:  0.58;

LANSING*       FAIR      72  66  83 NE3       30.11F
JOLIET*        LGT RAIN  71  69  92 NE3       30.11S
WAUKEGAN       MOCLDY    66  64  93 E5        30.12S
6HR MIN TEMP:  66; 6HR MAX TEMP:  70; 6HR PCP:  0.06;

DUPAGE AIRPORT CLOUDY    67  62  84 NE5       30.12R
6HR MIN TEMP:  66; 6HR MAX TEMP:  72; 6HR PCP:  0.55;

KANKAKEE*      CLOUDY    69  67  93 E3        30.10F
WHEELING       MOCLDY    68  65  90 E5        30.13S
6HR MIN TEMP:  67; 6HR MAX TEMP:  72; 6HR PCP:  0.10;

MORRIS*        LGT RAIN  69  67  95 CALM      30.09S
ROMEOVILLE*    MOCLDY    69  69 100 E8        30.12R
NORTHERLY ISL    N/A     71  64  78 NE7         N/A
$$

LMZ740>746-270700-
SOUTHERN LAKE MICHIGAN

STATION/POSITION SKY/WX   TEMP    WIND        PRES    VSBY  WAVE
                          AIR SEA DIR/SP/G                  HT/PER
                          (F)     (DEG/KT/KT) (MB)    (MI)  (FT/S)
SOUTHERN BUOY              72 75   60/ 14/ 16 1019.6          1/ 2
WILMETTE HARBOR            72 70  100/ 10/ 14   N/A           3/ 3
HARRISON CRIB              73      80/ 13/ 15   N/A
BURNHAM HARBOR             71      50/  7/ 11   N/A
CALUMET HARBOR             71      40/  5/  8 1019.4F
BURNS HARBOR               72      80/  7/ 15 1020.0F
MICHIGAN CITY              71      50/  8/ 10   N/A
MICHIGAN CITY 6N           72 75   80/ 12/ 14   N/A           3/ 4
ST. JOSEPH                 71 76   70/ 10/ 14 1019.6F         2/ 3
$$

ILZ025>027-034>036-040-047-049-050-058-095>099-270700-
WEST-CENTRAL ILLINOIS

CITY           SKY/WX    TMP DP  RH WIND       PRES   REMARKS
QUINCY         CLOUDY    70  70 100 E7        30.03F
GALESBURG*     TSTM      70  69  97 SE7       30.06F
MACOMB*        TSTM      71  70  98 E6        30.09R
JACKSONVILLE*  CLOUDY    72  71  96 E9        30.05F
PITTSFIELD*    CLOUDY    73  72  97 CALM      30.05S
$$

ILZ028>032-037-038-041>044-048-051>054-059>061-270700-
CENTRAL ILLINOIS

CITY           SKY/WX    TMP DP  RH WIND       PRES   REMARKS
PONTIAC        CLOUDY    71  70  98 NE5       30.10S
DECATUR        MOCLDY    71  69  93 SE5       30.08R
PEORIA         LGT RAIN  71  71 100 SE8       30.06F
6HR MIN TEMP:  71; 6HR MAX TEMP:  77; 6HR PCP:  0.01;

LACON*         MOCLDY    70  68  95 E8        30.07F
LINCOLN*       CLOUDY    72  71  97 CALM      30.07S
SPRINGFIELD    CLOUDY    74  70  87 SE5       30.07S
6HR MIN TEMP:  73; 6HR MAX TEMP:  78; 6HR PCP: TRACE;

TAYLORVILLE    MOCLDY    71  71  99 SE6       30.08S
6HR MIN TEMP:  70; 6HR MAX TEMP:  73;

$$

ILZ033-039-045-046-055>057-062-063-270700-
EAST-CENTRAL ILLINOIS

CITY           SKY/WX    TMP DP  RH WIND       PRES   REMARKS
CHAMPAIGN      PTCLDY    71  69  93 CALM      30.09R
RANTOUL*       MOCLDY    73  72  98 CALM      30.09S
MATTOON        CLOUDY    71  69  93 SE5       30.07R
PARIS*         CLOUDY    71  71 100 CALM      30.10R
$$

ILZ079-100>102-270700-
SOUTHWEST ILLINOIS

CITY           SKY/WX    TMP DP  RH WIND       PRES   REMARKS
ALTON          CLOUDY    72  71  97 E6        30.05R
BELLEVILLE     CLOUDY    75  75  99 SE7       30.06R
CAHOKIA*       CLOUDY    76  72  87 SE6       30.04R
SPARTA*        MOCLDY    73  71  91 S5        30.08S
$$

ILZ064>066-069>071-074>076-080>082-084>086-088>090-092>094-270700-
SOUTH-CENTRAL ILLINOIS

CITY           SKY/WX    TMP DP  RH WIND       PRES   REMARKS
CARBONDALE     MOCLDY    72  69  90 S6        30.08S
6HR MIN TEMP:  72; 6HR MAX TEMP:  79; 6HR PCP:  0.05;

EFFINGHAM*     CLOUDY    73  73 100 S3        30.09S
MARION         CLOUDY    73  70  88 SE13      30.08F
MT. VERNON     CLOUDY    73  64  73 S8        30.10S
CENTRALIA*     CLOUDY    75  71  85 S10       30.07F
SALEM*         LGT RAIN  77  71  83 S7        30.08F
METROPOLIS*    LGT RAIN  72  70  96 CALM      30.09F
$$

ILZ067-068-072-073-078-083-087-091-270700-
SOUTHEAST ILLINOIS

CITY           SKY/WX    TMP DP  RH WIND       PRES   REMARKS
LAWRENCEVILLE  CLOUDY    76  74  93 SE6       30.07S
FLORA*         CLOUDY    77  73  85 S13       30.10R
FAIRFIELD*     CLOUDY    73  70  88 CALM      30.08F
HARRISBURG*    LGT RAIN  72  71  96 S10       30.08F
ROBINSON*      CLOUDY    72  71  96 SE5       30.09S
CARMI*         RAIN      72  70  94 S7        30.08S
$$

ABBREVIATIONS USED IN REMARKS
   TC - TEMPERATURE IN CELSIUS
  WCI - WIND CHILL INDEX
   HX - HEAT INDEX
  VSB - VISIBILITY
$$





USA.gov is the U.S. government's official web portal to all federal, state and local government web resources and services.